Tracking 18647 objects as of 28-May-2017
HD Live streaming from Space Station
objects crossing your sky now

OPS 9317 (IDSCS 7)

Track OPS 9317 (IDSCS 7) now!
OPS 9317 (IDSCS 7) is classified as:


NORAD ID: 2221
Int'l Code: 1966-053H
Perigee: 33,729.6 km
Apogee: 34,350.6 km
Inclination: 2.3 °
Period: 1,347.4 minutes
Semi major axis: 40411 km
RCS: 0.2512 m2 (medium)
Launch date: June 16, 1966
Source: United States (US)
Launch site: AIR FORCE EASTERN TEST RANGE (AFETR)
Your satellite tracking list
Your tracking list is empty





NASA's NSSDC Master Catalog

Two Line Element Set (TLE):
1  2221U 66053H   17132.33154914 -.00000052 +00000-0 +00000-0 0  9999
2  2221 002.3283 057.8663 0076840 094.0926 013.6470 01.06868997198460
Source of the keplerian elements: AFSPC